IZ2OSD Weather Reports


time (UTC)temp
F
wind
direction
speed
knots
gust
knots
rain 1hr
in
rain 24hr
in
rain mn
in
humidity
%
barometer
mb
20260503053517 59 315 0.0 0.9 0.00 0.00 0.00 68 1018.1
20260503052513 57 315 0.9 1.7 0.00 0.00 0.00 69 1017.9
20260503051511 57 315 0.0 0.9 0.00 0.00 0.00 70 1017.7
20260503050507 55 315 0.0 0.9 0.00 0.00 0.00 72 1017.8
20260503045544 56 0.0 0.0 0.00 0.00 0.00 71 1017.9
20260503044500 56 0.0 0.0 0.00 0.00 0.00 71 1018.1
20260503043457 53 0.0 0.0 0.00 0.00 0.00 76 1018.1
20260503042447 53 0.0 0.0 0.00 0.00 0.00 76 1018.1
20260503041443 53 0.0 0.0 0.00 0.00 0.00 75 1017.9
20260503040440 54 0.0 0.0 0.00 0.00 0.00 74 1018.1
20260503035436 53 0.0 0.0 0.00 0.00 0.00 75 1018.1
20260503034433 53 0.0 0.0 0.00 0.00 0.00 75 1017.9
20260503033423 53 0.0 0.0 0.00 0.00 0.00 74 1017.6
20260503032500 53 0.0 0.0 0.00 0.00 0.00 74 1017.7
20260503031415 53 0.0 0.0 0.00 0.00 0.00 74 1018.2
20260503030413 53 0.0 0.0 0.00 0.00 0.00 74 1017.7
20260503025410 53 0.0 0.0 0.00 0.00 0.00 74 1017.8
20260503024405 54 0.0 0.0 0.00 0.00 0.00 73 1018.1
20260503023422 54 0.0 0.0 0.00 0.00 0.00 72 1018.2
20260503022359 55 0.0 0.0 0.00 0.00 0.00 70 1018.2
20260503021349 55 0.0 0.0 0.00 0.00 0.00 70 1018.4
20260503020348 55 0.0 0.0 0.00 0.00 0.00 68 1018.2
20260503015336 55 0.0 0.0 0.00 0.00 0.00 69 1018.2
20260503014353 55 0.0 0.0 0.00 0.00 0.00 69 1018.4
20260503013328 55 0.0 0.0 0.00 0.00 0.00 69 1018.2
20260503012325 55 0.0 0.0 0.00 0.00 0.00 69 1018.2
20260503011342 55 0.0 0.0 0.00 0.00 0.00 68 1018.3
20260503010311 55 0.0 0.0 0.00 0.00 0.00 69 1018.7
20260503005308 55 0.0 0.0 0.00 0.00 0.00 69 1018.8
20260503004303 56 0.0 0.0 0.00 0.00 0.00 69 1019.0
20260503003301 56 0.0 0.0 0.00 0.00 0.00 68 1019.0
20260503002259 57 0.0 0.0 0.00 0.00 0.00 67 1019.1
20260503001248 57 0.0 0.0 0.00 0.00 0.00 65 1019.1
20260503000244 57 0.0 0.0 0.00 0.00 0.00 63 1019.2
20260502235236 57 0.0 0.0 0.00 0.00 0.00 64 1018.9
20260502234231 57 0.0 0.0 0.00 0.00 0.00 64 1019.5
20260502233229 58 0.0 0.0 0.00 0.00 0.00 64 1019.5
20260502232223 58 0.0 0.0 0.00 0.00 0.00 63 1019.5
20260502231220 58 0.0 0.0 0.00 0.00 0.00 63 1019.4
20260502230233 59 0.0 0.0 0.00 0.00 0.00 63 1019.3
20260502225209 59 0.0 0.0 0.00 0.00 0.00 62 1019.4
20260502224244 59 0.0 0.0 0.00 0.00 0.00 61 1019.6
20260502223158 59 0.0 0.9 0.00 0.00 0.00 60 1019.5
20260502222149 59 0.0 0.0 0.00 0.00 0.00 60 1019.6
20260502221145 59 0.0 0.0 0.00 0.00 0.00 60 1019.7
20260502220137 59 315 0.0 0.9 0.00 0.00 0.00 60 1019.3
20260502215134 59 315 0.9 1.7 0.00 0.00 0.00 60 1019.7
20260502214132 58 0.0 0.0 0.00 0.00 0.00 60 1019.4
20260502213124 58 0.0 0.0 0.00 0.00 0.00 60 1019.8
20260502212121 60 0.0 0.0 0.00 0.00 0.00 60 1019.7
20260502211111 61 0.0 0.0 0.00 0.00 0.00 58 1019.6
20260502210108 61 0.0 0.0 0.00 0.00 0.00 57 1019.5
20260502205104 62 0.0 0.0 0.00 0.00 0.00 55 1019.6
20260502204101 62 0.0 0.0 0.00 0.00 0.00 55 1019.5
20260502203117 62 0.0 0.0 0.00 0.00 0.00 54 1019.4
20260502202048 62 0.0 0.0 0.00 0.00 0.00 53 1019.5
20260502201044 63 0.0 0.0 0.00 0.00 0.00 53 1019.7
20260502200042 63 0.0 0.0 0.00 0.00 0.00 52 1019.2
20260502195036 63 0.0 0.0 0.00 0.00 0.00 52 1019.2
20260502194033 64 0.0 0.0 0.00 0.00 0.00 51 1019.2
20260502193026 64 0.0 0.0 0.00 0.00 0.00 50 1019.3
20260502192020 65 0.0 0.0 0.00 0.00 0.00 52 1019.3
20260502191015 66 0.0 0.0 0.00 0.00 0.00 50 1019.3
20260502190012 67 0.0 0.0 0.00 0.00 0.00 49 1019.3
20260502185009 68 0.0 0.0 0.00 0.00 0.00 48 1019.0
20260502184005 69 0.0 0.0 0.00 0.00 0.00 40 1019.1
20260502183124 69 0.0 0.0 0.00 0.00 0.00 40 1019.2
20260502182020 70 0.0 0.0 0.00 0.00 0.00 39 1019.0
20260502180955 70 0.0 0.0 0.00 0.00 0.00 38 1019.2
20260502163911 73 315 0.0 0.9 0.00 0.00 0.00 33 1019.2
20260502162901 73 0.0 0.0 0.00 0.00 0.00 33 1019.2
20260502161857 73 0.0 0.9 0.00 0.00 0.00 33 1019.6
20260502160847 73 315 0.0 0.9 0.00 0.00 0.00 34 1019.5
20260502151823 73 0.0 0.0 0.00 0.00 0.00 34 1019.9
20260502150813 73 292 1.7 3.5 0.00 0.00 0.00 33 1020.0
20260502130713 75 315 0.0 1.7 0.00 0.00 0.00 33 1021.5
20260502123720 74 112 0.0 0.9 0.00 0.00 0.00 35 1022.0
20260502122657 71 292 1.7 3.5 0.00 0.00 0.00 35 1022.2
20260502121648 72 112 0.0 1.7 0.00 0.00 0.00 35 1022.4
20260502120644 71 292 2.6 2.6 0.00 0.00 0.00 34 1022.4
20260502115640 72 135 2.6 3.5 0.00 0.00 0.00 36 1022.6
20260502114637 72 202 2.6 3.5 0.00 0.00 0.00 35 1022.8
20260502113633 73 0.0 0.0 0.00 0.00 0.00 35 1022.8
20260502112629 73 292 0.9 1.7 0.00 0.00 0.00 35 1022.9
20260502111626 70 112 1.7 3.5 0.00 0.00 0.00 35 1023.2
20260502110623 72 292 0.9 1.7 0.00 0.00 0.00 36 1023.4
20260502105639 72 337 1.7 2.6 0.00 0.00 0.00 37 1023.5
20260502104616 72 0.0 0.9 0.00 0.00 0.00 37 1023.7
20260502103612 73 292 1.7 2.6 0.00 0.00 0.00 36 1024.0
20260502102609 74 292 0.9 2.6 0.00 0.00 0.00 36 1024.0
20260502100609 72 292 0.0 0.9 0.00 0.00 0.00 38 1024.3
20260502090544 71 315 0.9 1.7 0.00 0.00 0.00 40 1024.9
20260502071451 62 112 0.9 1.7 0.00 0.00 0.00 50 1025.3
20260502070449 67 292 0.0 1.7 0.00 0.00 0.00 46 1025.3
20260502065437 64 292 0.0 0.9 0.00 0.00 0.00 53 1025.4
20260502064434 66 292 0.0 0.9 0.00 0.00 0.00 51 1025.2
20260502063433 65 292 0.0 0.9 0.00 0.00 0.00 53 1025.1
20260502062427 62 0.0 0.9 0.00 0.00 0.00 56 1025.4
20260502061504 61 292 0.9 1.7 0.00 0.00 0.00 59 1025.0
20260502060433 59 292 0.9 2.6 0.00 0.00 0.00 61 1025.1
20260502055410 57 292 1.7 1.7 0.00 0.00 0.00 63 1025.0
20260502054426 56 292 1.7 2.6 0.00 0.00 0.00 63 1025.1